Year,Month,Day,Hour,Minute,Value (Times are PST for temperature in C)
2014,09,05,00,00,16.00
2014,09,05,00,01,16.10
2014,09,05,00,02,16.10
2014,09,05,00,03,16.10
2014,09,05,00,04,16.10
2014,09,05,00,05,16.10
2014,09,05,00,06,16.10
2014,09,05,00,07,16.10
2014,09,05,00,08,16.10
2014,09,05,00,09,16.10
2014,09,05,00,10,16.10
2014,09,05,00,11,16.10
2014,09,05,00,12,16.10
2014,09,05,00,13,16.10
2014,09,05,00,14,16.10
2014,09,05,00,15,16.10
2014,09,05,00,16,16.10
2014,09,05,00,17,16.20
2014,09,05,00,18,16.10
2014,09,05,00,19,16.10
2014,09,05,00,20,16.10
2014,09,05,00,21,16.10
2014,09,05,00,22,16.10
2014,09,05,00,23,16.10
2014,09,05,00,24,16.10
2014,09,05,00,25,16.00
2014,09,05,00,26,16.00
2014,09,05,00,27,15.90
2014,09,05,00,28,15.90
2014,09,05,00,29,15.80
2014,09,05,00,30,15.80
2014,09,05,00,31,15.80
2014,09,05,00,32,15.70
2014,09,05,00,33,15.70
2014,09,05,00,34,15.70
2014,09,05,00,35,15.70
2014,09,05,00,36,15.60
2014,09,05,00,37,15.60
2014,09,05,00,38,15.60
2014,09,05,00,39,15.60
2014,09,05,00,40,15.50
2014,09,05,00,41,15.50
2014,09,05,00,42,15.50
2014,09,05,00,43,15.40
2014,09,05,00,44,15.40
2014,09,05,00,45,15.40
2014,09,05,00,46,15.30
2014,09,05,00,47,15.30
2014,09,05,00,48,15.40
2014,09,05,00,49,15.40
2014,09,05,00,50,15.40
2014,09,05,00,51,15.40
2014,09,05,00,52,15.50
2014,09,05,00,53,15.50
2014,09,05,00,54,15.50
2014,09,05,00,55,15.60
2014,09,05,00,56,15.60
2014,09,05,00,57,15.60
2014,09,05,00,58,15.60
2014,09,05,00,59,15.60
2014,09,05,01,00,15.60
2014,09,05,01,01,15.50
2014,09,05,01,02,15.50
2014,09,05,01,03,15.40
2014,09,05,01,04,15.40
2014,09,05,01,05,15.30
2014,09,05,01,06,15.20
2014,09,05,01,07,15.10
2014,09,05,01,08,15.00
2014,09,05,01,09,15.00
2014,09,05,01,10,14.90
2014,09,05,01,11,14.70
2014,09,05,01,12,14.60
2014,09,05,01,13,14.50
2014,09,05,01,14,14.40
2014,09,05,01,15,14.30
2014,09,05,01,16,14.20
2014,09,05,01,17,14.10
2014,09,05,01,18,14.00
2014,09,05,01,19,14.00
2014,09,05,01,20,13.90
2014,09,05,01,21,13.80
2014,09,05,01,22,13.80
2014,09,05,01,23,13.80
2014,09,05,01,24,13.70
2014,09,05,01,25,13.80
2014,09,05,01,26,13.80
2014,09,05,01,27,13.80
2014,09,05,01,28,13.80
2014,09,05,01,29,13.90
2014,09,05,01,30,13.90
2014,09,05,01,31,14.00
2014,09,05,01,32,14.00
2014,09,05,01,33,14.10
2014,09,05,01,34,14.10
2014,09,05,01,35,14.10
2014,09,05,01,36,14.10
2014,09,05,01,37,14.00
2014,09,05,01,38,14.00
2014,09,05,01,39,13.90
2014,09,05,01,40,13.90
2014,09,05,01,41,13.80
2014,09,05,01,42,13.80
2014,09,05,01,43,13.70
2014,09,05,01,44,13.60
2014,09,05,01,45,13.60
2014,09,05,01,46,13.50
2014,09,05,01,47,13.40
2014,09,05,01,48,13.40
2014,09,05,01,49,13.30
2014,09,05,01,50,13.30
2014,09,05,01,51,13.30
2014,09,05,01,52,13.30
2014,09,05,01,53,13.30
2014,09,05,01,54,13.30
2014,09,05,01,55,13.30
2014,09,05,01,56,13.30
2014,09,05,01,57,13.30
2014,09,05,01,58,13.30
2014,09,05,01,59,13.30
2014,09,05,02,00,13.30
2014,09,05,02,01,13.30
2014,09,05,02,02,13.30
2014,09,05,02,03,13.30
2014,09,05,02,04,13.30
2014,09,05,02,05,13.30
2014,09,05,02,06,13.20
2014,09,05,02,07,13.20
2014,09,05,02,08,13.20
2014,09,05,02,09,13.10
2014,09,05,02,10,13.10
2014,09,05,02,11,13.10
2014,09,05,02,12,13.10
2014,09,05,02,13,13.00
2014,09,05,02,14,13.00
2014,09,05,02,15,13.00
2014,09,05,02,16,13.10
2014,09,05,02,17,13.10
2014,09,05,02,18,13.20
2014,09,05,02,19,13.30
2014,09,05,02,20,13.40
2014,09,05,02,21,13.40
2014,09,05,02,22,13.50
2014,09,05,02,23,13.60
2014,09,05,02,24,13.70
2014,09,05,02,25,13.80
2014,09,05,02,26,13.80
2014,09,05,02,27,13.90
2014,09,05,02,28,14.00
2014,09,05,02,29,14.00
2014,09,05,02,30,14.10
2014,09,05,02,31,14.10
2014,09,05,02,32,14.10
2014,09,05,02,33,14.10
2014,09,05,02,34,14.20
2014,09,05,02,35,14.20
2014,09,05,02,36,14.30
2014,09,05,02,37,14.30
2014,09,05,02,38,14.30
2014,09,05,02,39,14.30
2014,09,05,02,40,14.40
2014,09,05,02,41,14.40
2014,09,05,02,42,14.40
2014,09,05,02,43,14.40
2014,09,05,02,44,14.40
2014,09,05,02,45,14.30
2014,09,05,02,46,14.30
2014,09,05,02,47,14.20
2014,09,05,02,48,14.10
2014,09,05,02,49,14.10
2014,09,05,02,50,14.00
2014,09,05,02,51,13.90
2014,09,05,02,52,13.90
2014,09,05,02,53,13.90
2014,09,05,02,54,13.90
2014,09,05,02,55,13.90
2014,09,05,02,56,13.90
2014,09,05,02,57,13.90
2014,09,05,02,58,13.90
2014,09,05,02,59,13.90
2014,09,05,03,00,14.00
2014,09,05,03,01,14.00
2014,09,05,03,02,14.00
2014,09,05,03,03,14.10
2014,09,05,03,04,14.10
2014,09,05,03,05,14.10
2014,09,05,03,06,14.10
2014,09,05,03,07,14.10
2014,09,05,03,08,14.10
2014,09,05,03,09,14.10
2014,09,05,03,10,14.10
2014,09,05,03,11,14.10
2014,09,05,03,12,14.10
2014,09,05,03,13,14.10
2014,09,05,03,14,14.10
2014,09,05,03,15,14.10
2014,09,05,03,16,14.10
2014,09,05,03,17,14.10
2014,09,05,03,18,14.10
2014,09,05,03,19,14.00
2014,09,05,03,20,14.00
2014,09,05,03,21,14.00
2014,09,05,03,22,14.00
2014,09,05,03,23,14.00
2014,09,05,03,24,14.00
2014,09,05,03,25,14.00
2014,09,05,03,26,14.10
2014,09,05,03,27,14.10
2014,09,05,03,28,14.10
2014,09,05,03,29,14.10
2014,09,05,03,30,14.10
2014,09,05,03,31,14.20
2014,09,05,03,32,14.20
2014,09,05,03,33,14.20
2014,09,05,03,34,14.20
2014,09,05,03,35,14.20
2014,09,05,03,36,14.30
2014,09,05,03,37,14.30
2014,09,05,03,38,14.30
2014,09,05,03,39,14.30
2014,09,05,03,40,14.30
2014,09,05,03,41,14.30
2014,09,05,03,42,14.30
2014,09,05,03,43,14.30
2014,09,05,03,44,14.20
2014,09,05,03,45,14.20
2014,09,05,03,46,14.20
2014,09,05,03,47,14.20
2014,09,05,03,48,14.10
2014,09,05,03,49,14.10
2014,09,05,03,50,14.10
2014,09,05,03,51,14.10
2014,09,05,03,52,14.10
2014,09,05,03,53,14.10
2014,09,05,03,54,14.10
2014,09,05,03,55,14.10
2014,09,05,03,56,14.10
2014,09,05,03,57,14.00
2014,09,05,03,58,14.00
2014,09,05,03,59,14.00
2014,09,05,04,00,14.00
2014,09,05,04,01,13.90
2014,09,05,04,02,13.90
2014,09,05,04,03,13.90
2014,09,05,04,04,13.80
2014,09,05,04,05,13.80
2014,09,05,04,06,13.70
2014,09,05,04,07,13.70
2014,09,05,04,08,13.60
2014,09,05,04,09,13.50
2014,09,05,04,10,13.40
2014,09,05,04,11,13.30
2014,09,05,04,12,13.20
2014,09,05,04,13,13.20
2014,09,05,04,14,13.10
2014,09,05,04,15,13.10
2014,09,05,04,16,13.10
2014,09,05,04,17,13.10
2014,09,05,04,18,13.10
2014,09,05,04,19,13.10
2014,09,05,04,20,13.10
2014,09,05,04,21,13.20
2014,09,05,04,22,13.20
2014,09,05,04,23,13.20
2014,09,05,04,24,13.30
2014,09,05,04,25,13.30
2014,09,05,04,26,13.30
2014,09,05,04,27,13.30
2014,09,05,04,28,13.40
2014,09,05,04,29,13.40
2014,09,05,04,30,13.40
2014,09,05,04,31,13.40
2014,09,05,04,32,13.50
2014,09,05,04,33,13.50
2014,09,05,04,34,13.50
2014,09,05,04,35,13.60
2014,09,05,04,36,13.60
2014,09,05,04,37,13.60
2014,09,05,04,38,13.60
2014,09,05,04,39,13.60
2014,09,05,04,40,13.60
2014,09,05,04,41,13.60
2014,09,05,04,42,13.70
2014,09,05,04,43,13.70
2014,09,05,04,44,13.70
2014,09,05,04,45,13.70
2014,09,05,04,46,13.70
2014,09,05,04,47,13.80
2014,09,05,04,48,13.80
2014,09,05,04,49,13.90
2014,09,05,04,50,13.90
2014,09,05,04,51,13.90
2014,09,05,04,52,14.00
2014,09,05,04,53,14.00
2014,09,05,04,54,14.00
2014,09,05,04,55,14.10
2014,09,05,04,56,14.10
2014,09,05,04,57,14.10
2014,09,05,04,58,14.00
2014,09,05,04,59,14.00
2014,09,05,05,00,13.90
2014,09,05,05,01,13.90
2014,09,05,05,02,13.90
2014,09,05,05,03,13.90
2014,09,05,05,04,13.80
2014,09,05,05,05,13.80
2014,09,05,05,06,13.80
2014,09,05,05,07,13.80
2014,09,05,05,08,13.80
2014,09,05,05,09,13.80
2014,09,05,05,10,13.80
2014,09,05,05,11,13.80
2014,09,05,05,12,13.80
2014,09,05,05,13,13.80
2014,09,05,05,14,13.80
2014,09,05,05,15,13.80
2014,09,05,05,16,13.70
2014,09,05,05,17,13.70
2014,09,05,05,18,13.70
2014,09,05,05,19,13.70
2014,09,05,05,20,13.70
2014,09,05,05,21,13.70
2014,09,05,05,22,13.70
2014,09,05,05,23,13.70
2014,09,05,05,24,13.70
2014,09,05,05,25,13.60
2014,09,05,05,26,13.60
2014,09,05,05,27,13.60
2014,09,05,05,28,13.70
2014,09,05,05,29,13.70
2014,09,05,05,30,13.70
2014,09,05,05,31,13.70
2014,09,05,05,32,13.70
2014,09,05,05,33,13.70
2014,09,05,05,34,13.70
2014,09,05,05,35,13.70
2014,09,05,05,36,13.70
2014,09,05,05,37,13.70
2014,09,05,05,38,13.70
2014,09,05,05,39,13.70
2014,09,05,05,40,13.70
2014,09,05,05,41,13.70
2014,09,05,05,42,13.70
2014,09,05,05,43,13.70
2014,09,05,05,44,13.60
2014,09,05,05,45,13.60
2014,09,05,05,46,13.60
2014,09,05,05,47,13.50
2014,09,05,05,48,13.50
2014,09,05,05,49,13.40
2014,09,05,05,50,13.40
2014,09,05,05,51,13.40
2014,09,05,05,52,13.30
2014,09,05,05,53,13.30
2014,09,05,05,54,13.30
2014,09,05,05,55,13.30
2014,09,05,05,56,13.30
2014,09,05,05,57,13.30
2014,09,05,05,58,13.30
2014,09,05,05,59,13.20
2014,09,05,06,00,13.20
2014,09,05,06,01,13.10
2014,09,05,06,02,13.10
2014,09,05,06,03,13.10
2014,09,05,06,04,13.10
2014,09,05,06,05,13.00
2014,09,05,06,06,13.00
2014,09,05,06,07,12.90
2014,09,05,06,08,12.90
2014,09,05,06,09,12.90
2014,09,05,06,10,12.90
2014,09,05,06,11,12.80
2014,09,05,06,12,12.80
2014,09,05,06,13,12.80
2014,09,05,06,14,12.70
2014,09,05,06,15,12.70
2014,09,05,06,16,12.70
2014,09,05,06,17,12.70
2014,09,05,06,18,12.70
2014,09,05,06,19,12.70
2014,09,05,06,20,12.70
2014,09,05,06,21,12.70
2014,09,05,06,22,12.80
2014,09,05,06,23,12.80
2014,09,05,06,24,12.90
2014,09,05,06,25,13.00
2014,09,05,06,26,13.00
2014,09,05,06,27,13.10
2014,09,05,06,28,13.10
2014,09,05,06,29,13.10
2014,09,05,06,30,13.10
2014,09,05,06,31,13.20
2014,09,05,06,32,13.20
2014,09,05,06,33,13.20
2014,09,05,06,34,13.20
2014,09,05,06,35,13.20
2014,09,05,06,36,13.20
2014,09,05,06,37,13.20
2014,09,05,06,38,13.20
2014,09,05,06,39,13.20
2014,09,05,06,40,13.20
2014,09,05,06,41,13.10
2014,09,05,06,42,13.10
2014,09,05,06,43,13.00
2014,09,05,06,44,13.00
2014,09,05,06,45,13.00
2014,09,05,06,46,12.90
2014,09,05,06,47,12.90
2014,09,05,06,48,12.90
2014,09,05,06,49,12.90
2014,09,05,06,50,12.80
2014,09,05,06,51,12.80
2014,09,05,06,52,12.80
2014,09,05,06,53,12.80
2014,09,05,06,54,12.80
2014,09,05,06,55,12.80
2014,09,05,06,56,12.80
2014,09,05,06,57,12.80
2014,09,05,06,58,12.80
2014,09,05,06,59,12.90
2014,09,05,07,00,12.90
2014,09,05,07,01,13.00
2014,09,05,07,02,13.10
2014,09,05,07,03,13.10
2014,09,05,07,04,13.20
2014,09,05,07,05,13.20
2014,09,05,07,06,13.30
2014,09,05,07,07,13.30
2014,09,05,07,08,13.30
2014,09,05,07,09,13.40
2014,09,05,07,10,13.40
2014,09,05,07,11,13.40
2014,09,05,07,12,13.40
2014,09,05,07,13,13.40
2014,09,05,07,14,13.50
2014,09,05,07,15,13.50
2014,09,05,07,16,13.50
2014,09,05,07,17,13.60
2014,09,05,07,18,13.60
2014,09,05,07,19,13.60
2014,09,05,07,20,13.60
2014,09,05,07,21,13.60
2014,09,05,07,22,13.60
2014,09,05,07,23,13.60
2014,09,05,07,24,13.70
2014,09,05,07,25,13.70
2014,09,05,07,26,13.70
2014,09,05,07,27,13.70
2014,09,05,07,28,13.70
2014,09,05,07,29,13.80
2014,09,05,07,30,13.80
2014,09,05,07,31,13.80
2014,09,05,07,32,13.80
2014,09,05,07,33,13.90
2014,09,05,07,34,13.90
2014,09,05,07,35,13.90
2014,09,05,07,36,14.00
2014,09,05,07,37,14.00
2014,09,05,07,38,14.10
2014,09,05,07,39,14.10
2014,09,05,07,40,14.10
2014,09,05,07,41,14.20
2014,09,05,07,42,14.20
2014,09,05,07,43,14.20
2014,09,05,07,44,14.30
2014,09,05,07,45,14.30
2014,09,05,07,46,14.30
2014,09,05,07,47,14.30
2014,09,05,07,48,14.40
2014,09,05,07,49,14.40
2014,09,05,07,50,14.50
2014,09,05,07,51,14.50
2014,09,05,07,52,14.60
2014,09,05,07,53,14.60
2014,09,05,07,54,14.70
2014,09,05,07,55,14.70
2014,09,05,07,56,14.80
2014,09,05,07,57,14.80
2014,09,05,07,58,14.90
2014,09,05,07,59,14.90
2014,09,05,08,00,15.00
2014,09,05,08,01,15.00
2014,09,05,08,02,15.00
2014,09,05,08,03,15.00
2014,09,05,08,04,15.00
2014,09,05,08,05,15.00
2014,09,05,08,06,15.00
2014,09,05,08,07,15.00
2014,09,05,08,08,15.00
2014,09,05,08,09,15.00
2014,09,05,08,10,15.10
2014,09,05,08,11,15.10
2014,09,05,08,12,15.20
2014,09,05,08,13,15.20
2014,09,05,08,14,15.30
2014,09,05,08,15,15.30
2014,09,05,08,16,15.30
2014,09,05,08,17,15.40
2014,09,05,08,18,15.40
2014,09,05,08,19,15.40
2014,09,05,08,20,15.40
2014,09,05,08,21,15.40
2014,09,05,08,22,15.40
2014,09,05,08,23,15.50
2014,09,05,08,24,15.50
2014,09,05,08,25,15.50
2014,09,05,08,26,15.50
2014,09,05,08,27,15.50
2014,09,05,08,28,15.60
2014,09,05,08,29,15.60
2014,09,05,08,30,15.60
2014,09,05,08,31,15.70
2014,09,05,08,32,15.70
2014,09,05,08,33,15.70
2014,09,05,08,34,15.70
2014,09,05,08,35,15.70
2014,09,05,08,36,15.80
2014,09,05,08,37,15.80
2014,09,05,08,38,15.80
2014,09,05,08,39,15.80
2014,09,05,08,40,15.90
2014,09,05,08,41,15.90
2014,09,05,08,42,15.90
2014,09,05,08,43,15.90
2014,09,05,08,44,16.00
2014,09,05,08,45,16.00
2014,09,05,08,46,16.10
2014,09,05,08,47,16.10
2014,09,05,08,48,16.10
2014,09,05,08,49,16.10
2014,09,05,08,50,16.10
2014,09,05,08,51,16.10
2014,09,05,08,52,16.10
2014,09,05,08,53,16.10
2014,09,05,08,54,16.10
2014,09,05,08,55,16.20
2014,09,05,08,56,16.20
2014,09,05,08,57,16.20
2014,09,05,08,58,16.20
2014,09,05,08,59,16.20
2014,09,05,09,00,16.20
2014,09,05,09,01,16.30
2014,09,05,09,02,16.30
2014,09,05,09,03,16.30
2014,09,05,09,04,16.30
2014,09,05,09,05,16.30
2014,09,05,09,06,16.30
2014,09,05,09,07,16.30
2014,09,05,09,08,16.30
2014,09,05,09,09,16.30
2014,09,05,09,10,16.30
2014,09,05,09,11,16.30
2014,09,05,09,12,16.30
2014,09,05,09,13,16.40
2014,09,05,09,14,16.40
2014,09,05,09,15,16.50
2014,09,05,09,16,16.50
2014,09,05,09,17,16.60
2014,09,05,09,18,16.60
2014,09,05,09,19,16.60
2014,09,05,09,20,16.70
2014,09,05,09,21,16.70
2014,09,05,09,22,16.70
2014,09,05,09,23,16.70
2014,09,05,09,24,16.70
2014,09,05,09,25,16.80
2014,09,05,09,26,16.80
2014,09,05,09,27,16.80
2014,09,05,09,28,16.80
2014,09,05,09,29,16.90
2014,09,05,09,30,16.90
2014,09,05,09,31,17.00
2014,09,05,09,32,17.10
2014,09,05,09,33,17.10
2014,09,05,09,34,17.10
2014,09,05,09,35,17.20
2014,09,05,09,36,17.20
2014,09,05,09,37,17.30
2014,09,05,09,38,17.30
2014,09,05,09,39,17.40
2014,09,05,09,40,17.40
2014,09,05,09,41,17.40
2014,09,05,09,42,17.50
2014,09,05,09,43,17.50
2014,09,05,09,44,17.50
2014,09,05,09,45,17.60
2014,09,05,09,46,17.60
2014,09,05,09,47,17.60
2014,09,05,09,48,17.70
2014,09,05,09,49,17.70
2014,09,05,09,50,17.70
2014,09,05,09,51,17.70
2014,09,05,09,52,17.70
2014,09,05,09,53,17.70
2014,09,05,09,54,17.60
2014,09,05,09,55,17.60
2014,09,05,09,56,17.60
2014,09,05,09,57,17.50
2014,09,05,09,58,17.50
2014,09,05,09,59,17.50
2014,09,05,10,00,17.50
2014,09,05,10,01,17.50
2014,09,05,10,02,17.60
2014,09,05,10,03,17.60
2014,09,05,10,04,17.70
2014,09,05,10,05,17.70
2014,09,05,10,06,17.70
2014,09,05,10,07,17.70
2014,09,05,10,08,17.70
2014,09,05,10,09,17.70
2014,09,05,10,10,17.80
2014,09,05,10,11,17.80
2014,09,05,10,12,17.80
2014,09,05,10,13,17.80
2014,09,05,10,14,17.80
2014,09,05,10,15,17.80
2014,09,05,10,16,17.80
2014,09,05,10,17,17.80
2014,09,05,10,18,17.80
2014,09,05,10,19,17.80
2014,09,05,10,20,17.80
2014,09,05,10,21,17.90
2014,09,05,10,22,17.90
2014,09,05,10,23,17.90
2014,09,05,10,24,17.90
2014,09,05,10,25,17.80
2014,09,05,10,26,17.80
2014,09,05,10,27,17.80
2014,09,05,10,28,17.70
2014,09,05,10,29,17.70
2014,09,05,10,30,17.60
2014,09,05,10,31,17.60
2014,09,05,10,32,17.60
2014,09,05,10,33,17.50
2014,09,05,10,34,17.50
2014,09,05,10,35,17.40
2014,09,05,10,36,17.40
2014,09,05,10,37,17.40
2014,09,05,10,38,17.50
2014,09,05,10,39,17.50
2014,09,05,10,40,17.60
2014,09,05,10,41,17.60
2014,09,05,10,42,17.60
2014,09,05,10,43,17.70
2014,09,05,10,44,17.70
2014,09,05,10,45,17.80
2014,09,05,10,46,17.80
2014,09,05,10,47,17.80
2014,09,05,10,48,17.90
2014,09,05,10,49,17.90
2014,09,05,10,50,17.90
2014,09,05,10,51,17.90
2014,09,05,10,52,17.90
2014,09,05,10,53,17.80
2014,09,05,10,54,17.80
2014,09,05,10,55,17.80
2014,09,05,10,56,17.80
2014,09,05,10,57,17.80
2014,09,05,10,58,17.80
2014,09,05,10,59,17.80
2014,09,05,11,00,17.80
2014,09,05,11,01,17.80
2014,09,05,11,02,17.80
2014,09,05,11,03,17.80
2014,09,05,11,04,17.80
2014,09,05,11,05,17.80
2014,09,05,11,06,17.70
2014,09,05,11,07,17.70
2014,09,05,11,08,17.70
2014,09,05,11,09,17.70
2014,09,05,11,10,17.60
2014,09,05,11,11,17.60
2014,09,05,11,12,17.60
2014,09,05,11,13,17.50
2014,09,05,11,14,17.50
2014,09,05,11,15,17.40
2014,09,05,11,16,17.40
2014,09,05,11,17,17.40
2014,09,05,11,18,17.40
2014,09,05,11,19,17.40
2014,09,05,11,20,17.50
2014,09,05,11,21,17.50
2014,09,05,11,22,17.50
2014,09,05,11,23,17.50
2014,09,05,11,24,17.50
2014,09,05,11,25,17.50
2014,09,05,11,26,17.60
2014,09,05,11,27,17.60
2014,09,05,11,28,17.60
2014,09,05,11,29,17.60
2014,09,05,11,30,17.50
2014,09,05,11,31,17.50
2014,09,05,11,32,17.40
2014,09,05,11,33,17.40
2014,09,05,11,34,17.30
2014,09,05,11,35,17.30
2014,09,05,11,36,17.30
2014,09,05,11,37,17.40
2014,09,05,11,38,17.40
2014,09,05,11,39,17.40
2014,09,05,11,40,17.30
2014,09,05,11,41,17.30
2014,09,05,11,42,17.30
2014,09,05,11,43,17.40
2014,09,05,11,44,17.40
2014,09,05,11,45,17.40
2014,09,05,11,46,17.50
2014,09,05,11,47,17.50
2014,09,05,11,48,17.50
2014,09,05,11,49,17.50
2014,09,05,11,50,17.60
2014,09,05,11,51,17.50
2014,09,05,11,52,17.50
2014,09,05,11,53,17.50
2014,09,05,11,54,17.50
2014,09,05,11,55,17.50
2014,09,05,11,56,17.50
2014,09,05,11,57,17.50
2014,09,05,11,58,17.50
2014,09,05,11,59,17.50
2014,09,05,12,00,17.40
2014,09,05,12,01,17.40
2014,09,05,12,02,17.40
2014,09,05,12,03,17.50
2014,09,05,12,04,17.50
2014,09,05,12,05,17.60
2014,09,05,12,06,17.60
2014,09,05,12,07,17.50
2014,09,05,12,08,17.50
2014,09,05,12,09,17.50
2014,09,05,12,10,17.50
2014,09,05,12,11,17.50
2014,09,05,12,12,17.60
2014,09,05,12,13,17.60
2014,09,05,12,14,17.50
2014,09,05,12,15,17.50
2014,09,05,12,16,17.40
2014,09,05,12,17,17.40
2014,09,05,12,18,17.40
2014,09,05,12,19,17.40
2014,09,05,12,20,17.40
2014,09,05,12,21,17.50
2014,09,05,12,22,17.50
2014,09,05,12,23,17.50
2014,09,05,12,24,17.50
2014,09,05,12,25,17.50
2014,09,05,12,26,17.50
2014,09,05,12,27,17.50
2014,09,05,12,28,17.40
2014,09,05,12,29,17.40
2014,09,05,12,30,17.40
2014,09,05,12,31,17.40
2014,09,05,12,32,17.40
2014,09,05,12,33,17.40
2014,09,05,12,34,17.40
2014,09,05,12,35,17.50
2014,09,05,12,36,17.50
2014,09,05,12,37,17.60
2014,09,05,12,38,17.60
2014,09,05,12,39,17.60
2014,09,05,12,40,17.60
2014,09,05,12,41,17.60
2014,09,05,12,42,17.70
2014,09,05,12,43,17.70
2014,09,05,12,44,17.70
2014,09,05,12,45,17.80
2014,09,05,12,46,17.80
2014,09,05,12,47,17.90
2014,09,05,12,48,17.90
2014,09,05,12,49,17.80
2014,09,05,12,50,17.80
2014,09,05,12,51,17.90
2014,09,05,12,52,17.90
2014,09,05,12,53,18.00
2014,09,05,12,54,18.00
2014,09,05,12,55,18.00
2014,09,05,12,56,18.00
2014,09,05,12,57,18.10
2014,09,05,12,58,18.10
2014,09,05,12,59,18.20
2014,09,05,13,00,18.20
2014,09,05,13,01,18.20
2014,09,05,13,02,18.20
2014,09,05,13,03,18.20
2014,09,05,13,04,18.20
2014,09,05,13,05,18.20
2014,09,05,13,06,18.20
2014,09,05,13,07,18.20
2014,09,05,13,08,18.30
2014,09,05,13,09,18.30
2014,09,05,13,10,18.30
2014,09,05,13,11,18.40
2014,09,05,13,12,18.40
2014,09,05,13,13,18.40
2014,09,05,13,14,18.40
2014,09,05,13,15,18.40
2014,09,05,13,16,18.40
2014,09,05,13,17,18.40
2014,09,05,13,18,18.40
2014,09,05,13,19,18.40
2014,09,05,13,20,18.50
2014,09,05,13,21,18.40
2014,09,05,13,22,18.50
2014,09,05,13,23,18.50
2014,09,05,13,24,18.60
2014,09,05,13,25,18.50
2014,09,05,13,26,18.50
2014,09,05,13,27,18.50
2014,09,05,13,28,18.60
2014,09,05,13,29,18.60
2014,09,05,13,30,18.60
2014,09,05,13,31,18.60
2014,09,05,13,32,18.60
2014,09,05,13,33,18.60
2014,09,05,13,34,18.70
2014,09,05,13,35,18.70
2014,09,05,13,36,18.70
2014,09,05,13,37,18.80
2014,09,05,13,38,18.80
2014,09,05,13,39,18.80
2014,09,05,13,40,18.90
2014,09,05,13,41,18.90
2014,09,05,13,42,18.90
2014,09,05,13,43,18.90
2014,09,05,13,44,18.90
2014,09,05,13,45,19.00
2014,09,05,13,46,19.00
2014,09,05,13,47,19.10
2014,09,05,13,48,19.10
2014,09,05,13,49,19.10
2014,09,05,13,50,19.10
2014,09,05,13,51,19.10
2014,09,05,13,52,19.10
2014,09,05,13,53,19.20
2014,09,05,13,54,19.20
2014,09,05,13,55,19.30
2014,09,05,13,56,19.40
2014,09,05,13,57,19.40
2014,09,05,13,58,19.40
2014,09,05,13,59,19.40
2014,09,05,14,00,19.40
2014,09,05,14,01,19.30
2014,09,05,14,02,19.30
2014,09,05,14,03,19.30
2014,09,05,14,04,19.30
2014,09,05,14,05,19.30
2014,09,05,14,06,19.30
2014,09,05,14,07,19.30
2014,09,05,14,08,19.30
2014,09,05,14,09,19.30
2014,09,05,14,10,19.40
2014,09,05,14,11,19.40
2014,09,05,14,12,19.40
2014,09,05,14,13,19.40
2014,09,05,14,14,19.50
2014,09,05,14,15,19.60
2014,09,05,14,16,19.60
2014,09,05,14,17,19.70
2014,09,05,14,18,19.70
2014,09,05,14,19,19.70
2014,09,05,14,20,19.80
2014,09,05,14,21,19.80
2014,09,05,14,22,19.90
2014,09,05,14,23,19.90
2014,09,05,14,24,20.00
2014,09,05,14,25,20.00
2014,09,05,14,26,20.00
2014,09,05,14,27,20.00
2014,09,05,14,28,20.00
2014,09,05,14,29,20.00
2014,09,05,14,30,20.10
2014,09,05,14,31,20.10
2014,09,05,14,32,20.20
2014,09,05,14,33,20.20
2014,09,05,14,34,20.30
2014,09,05,14,35,20.30
2014,09,05,14,36,20.40
2014,09,05,14,37,20.40
2014,09,05,14,38,20.50
2014,09,05,14,39,20.60
2014,09,05,14,40,20.70
2014,09,05,14,41,20.80
2014,09,05,14,42,20.80
2014,09,05,14,43,20.80
2014,09,05,14,44,20.80
2014,09,05,14,45,20.80
2014,09,05,14,46,20.80
2014,09,05,14,47,20.70
2014,09,05,14,48,20.70
2014,09,05,14,49,20.70
2014,09,05,14,50,20.60
2014,09,05,14,51,20.60
2014,09,05,14,52,20.60
2014,09,05,14,53,20.60
2014,09,05,14,54,20.60
2014,09,05,14,55,20.60
2014,09,05,14,56,20.60
2014,09,05,14,57,20.60
2014,09,05,14,58,20.60
2014,09,05,14,59,20.60
2014,09,05,15,00,20.70
2014,09,05,15,01,20.70
2014,09,05,15,02,20.70
2014,09,05,15,03,20.70
2014,09,05,15,04,20.70
2014,09,05,15,05,20.80
2014,09,05,15,06,20.80
2014,09,05,15,07,20.90
2014,09,05,15,08,20.90
2014,09,05,15,09,20.90
2014,09,05,15,10,20.90
2014,09,05,15,11,21.00
2014,09,05,15,12,21.10
2014,09,05,15,13,21.10
2014,09,05,15,14,21.10
2014,09,05,15,15,21.20
2014,09,05,15,16,21.20
2014,09,05,15,17,21.10
2014,09,05,15,18,21.10
2014,09,05,15,19,21.10
2014,09,05,15,20,21.10
2014,09,05,15,21,21.10
2014,09,05,15,22,21.20
2014,09,05,15,23,21.20
2014,09,05,15,24,21.20
2014,09,05,15,25,21.30
2014,09,05,15,26,21.40
2014,09,05,15,27,21.40
2014,09,05,15,28,21.50
2014,09,05,15,29,21.50
2014,09,05,15,30,21.60
2014,09,05,15,31,21.60
2014,09,05,15,32,21.60
2014,09,05,15,33,21.60
2014,09,05,15,34,21.60
2014,09,05,15,35,21.60
2014,09,05,15,36,21.60
2014,09,05,15,37,21.60
2014,09,05,15,38,21.60
2014,09,05,15,39,21.60
2014,09,05,15,40,21.60
2014,09,05,15,41,21.60
2014,09,05,15,42,21.60
2014,09,05,15,43,21.50
2014,09,05,15,44,21.50
2014,09,05,15,45,21.50
2014,09,05,15,46,21.60
2014,09,05,15,47,21.60
2014,09,05,15,48,21.60
2014,09,05,15,49,21.70
2014,09,05,15,50,21.70
2014,09,05,15,51,21.80
2014,09,05,15,52,21.80
2014,09,05,15,53,21.80
2014,09,05,15,54,21.90
2014,09,05,15,55,21.90
2014,09,05,15,56,22.00
2014,09,05,15,57,22.10
2014,09,05,15,58,22.10
2014,09,05,15,59,22.20
2014,09,05,16,00,22.20
2014,09,05,16,01,22.30
2014,09,05,16,02,22.30
2014,09,05,16,03,22.40
2014,09,05,16,04,22.50
2014,09,05,16,05,22.50
2014,09,05,16,06,22.60
2014,09,05,16,07,22.70
2014,09,05,16,08,22.70
2014,09,05,16,09,22.70
2014,09,05,16,10,22.70
2014,09,05,16,11,22.70
2014,09,05,16,12,22.70
2014,09,05,16,13,22.70
2014,09,05,16,14,22.70
2014,09,05,16,15,22.70
2014,09,05,16,16,22.60
2014,09,05,16,17,22.50
2014,09,05,16,18,22.50
2014,09,05,16,19,22.40
2014,09,05,16,20,22.40
2014,09,05,16,21,22.40
2014,09,05,16,22,22.40
2014,09,05,16,23,22.40
2014,09,05,16,24,22.30
2014,09,05,16,25,22.30
2014,09,05,16,26,22.30
2014,09,05,16,27,22.30
2014,09,05,16,28,22.20
2014,09,05,16,29,22.20
2014,09,05,16,30,22.20
2014,09,05,16,31,22.20
2014,09,05,16,32,22.10
2014,09,05,16,33,22.10
2014,09,05,16,34,22.10
2014,09,05,16,35,22.00
2014,09,05,16,36,22.00
2014,09,05,16,37,21.90
2014,09,05,16,38,21.90
2014,09,05,16,39,21.90
2014,09,05,16,40,21.90
2014,09,05,16,41,21.90
2014,09,05,16,42,21.90
2014,09,05,16,43,21.90
2014,09,05,16,44,21.90
2014,09,05,16,45,21.90
2014,09,05,16,46,21.90
2014,09,05,16,47,21.90
2014,09,05,16,48,21.90
2014,09,05,16,49,22.00
2014,09,05,16,50,22.00
2014,09,05,16,51,22.00
2014,09,05,16,52,22.10
2014,09,05,16,53,22.10
2014,09,05,16,54,22.20
2014,09,05,16,55,22.20
2014,09,05,16,56,22.20
2014,09,05,16,57,22.30
2014,09,05,16,58,22.30
2014,09,05,16,59,22.40
2014,09,05,17,00,22.40
2014,09,05,17,01,22.50
2014,09,05,17,02,22.50
2014,09,05,17,03,22.60
2014,09,05,17,04,22.70
2014,09,05,17,05,22.70
2014,09,05,17,06,22.80
2014,09,05,17,07,22.80
2014,09,05,17,08,22.90
2014,09,05,17,09,22.90
2014,09,05,17,10,22.90
2014,09,05,17,11,22.90
2014,09,05,17,12,22.90
2014,09,05,17,13,22.90
2014,09,05,17,14,22.90
2014,09,05,17,15,22.90
2014,09,05,17,16,22.80
2014,09,05,17,17,22.80
2014,09,05,17,18,22.70
2014,09,05,17,19,22.70